TimeMST,TemperatureF,Dew PointF,Humidity,Sea Level PressureIn,VisibilityMPH,Wind Direction,Wind SpeedMPH,Gust SpeedMPH,PrecipitationIn,Events,Conditions,WindDirDegrees,DateUTC
12:53 AM,42.1,28.9,60,29.94,10.0,North,21.9,-,N/A,,Overcast,360,2013-02-07 07:53:00
1:53 AM,41.0,28.0,60,29.96,10.0,North,26.5,32.2,N/A,,Overcast,360,2013-02-07 08:53:00
2:53 AM,41.0,28.9,62,29.95,10.0,NNE,12.7,-,N/A,,Overcast,20,2013-02-07 09:53:00
3:53 AM,41.0,27.0,57,30.01,10.0,NNW,12.7,-,N/A,,Overcast,330,2013-02-07 10:53:00
4:53 AM,37.9,26.1,62,30.06,10.0,North,12.7,-,N/A,,Overcast,350,2013-02-07 11:53:00
5:53 AM,36.0,24.1,62,30.08,10.0,NW,10.4,-,N/A,,Overcast,320,2013-02-07 12:53:00
6:53 AM,30.9,21.9,69,30.13,10.0,NW,9.2,-,N/A,,Partly Cloudy,320,2013-02-07 13:53:00
7:53 AM,33.1,23.0,66,30.16,10.0,NNW,10.4,-,N/A,,Clear,330,2013-02-07 14:53:00
8:53 AM,37.9,24.1,57,30.17,10.0,NW,6.9,-,N/A,,Clear,310,2013-02-07 15:53:00
9:53 AM,42.1,24.1,49,30.17,10.0,Variable,3.5,-,N/A,,Clear,0,2013-02-07 16:53:00
10:53 AM,46.0,23.0,40,30.17,10.0,Variable,4.6,-,N/A,,Clear,0,2013-02-07 17:53:00
11:53 AM,48.0,21.9,36,30.14,10.0,WNW,6.9,-,N/A,,Clear,300,2013-02-07 18:53:00
12:53 PM,48.0,19.9,33,30.12,10.0,Variable,3.5,-,N/A,,Clear,0,2013-02-07 19:53:00
1:53 PM,50.0,17.1,27,30.09,10.0,West,8.1,-,N/A,,Clear,260,2013-02-07 20:53:00
2:53 PM,50.0,15.1,25,30.08,10.0,Calm,Calm,-,N/A,,Clear,0,2013-02-07 21:53:00
3:53 PM,50.0,15.1,25,30.08,10.0,SSW,4.6,-,N/A,,Clear,200,2013-02-07 22:53:00
4:53 PM,48.9,16.0,27,30.09,10.0,SSE,4.6,-,N/A,,Clear,150,2013-02-07 23:53:00
5:53 PM,44.1,14.0,30,30.12,10.0,SE,5.8,-,N/A,,Clear,140,2013-02-08 00:53:00
6:53 PM,39.9,14.0,35,30.15,10.0,SSE,5.8,-,N/A,,Clear,150,2013-02-08 01:53:00
7:53 PM,37.9,12.9,36,30.15,10.0,South,4.6,-,N/A,,Clear,180,2013-02-08 02:53:00
8:53 PM,37.0,12.9,37,30.14,10.0,South,5.8,-,N/A,,Clear,180,2013-02-08 03:53:00
10:53 PM,36.0,12.9,39,30.12,10.0,South,8.1,-,N/A,,Clear,190,2013-02-08 05:53:00
11:53 PM,33.1,12.0,42,30.11,10.0,SE,6.9,-,N/A,,Clear,140,2013-02-08 06:53:00